KJ6WEG Weather Reports


Display with metric or nautical units.
time (UTC)temp
F
wind
direction
speed
MPH
gust
MPH
rain 1hr
in
rain 24hr
in
rain mn
in
humidity
%
barometer
mb
20260831030556 57 208 0.0 6.0 0.00 0.00 0.00 91 1012.8
20260831030104 57 212 1.0 3.0 0.00 0.00 0.00 91 1012.7
20260831025557 57 0 0.0 4.0 0.00 0.00 0.00 90 1012.8
20260831025053 57 290 1.0 5.0 0.00 0.00 0.00 90 1012.6
20260831024602 57 0 0.0 5.0 0.00 0.00 0.00 90 1012.6
20260831024055 58 230 0.0 4.0 0.00 0.00 0.00 90 1012.6
20260831023552 58 234 0.0 4.0 0.00 0.00 0.00 90 1012.7
20260831023111 58 0 0.0 8.0 0.00 0.00 0.00 89 1012.7
20260831022555 58 302 1.0 8.0 0.00 0.00 0.00 89 1012.5
20260831022055 58 0 1.0 8.0 0.00 0.00 0.00 88 1012.6
20260831021606 59 0 1.0 6.0 0.00 0.00 0.00 88 1012.6
20260831021059 59 0 0.0 4.0 0.00 0.00 0.00 88 1012.6
20260831020555 59 294 1.0 8.0 0.00 0.00 0.00 88 1012.7
20260831020104 60 0 2.0 8.0 0.00 0.00 0.00 87 1012.7
20260831015556 60 288 1.0 8.0 0.00 0.00 0.00 87 1012.7
20260831015052 60 254 1.0 7.0 0.00 0.00 0.00 87 1012.7
20260831014605 60 0 1.0 8.0 0.00 0.00 0.00 87 1012.7
20260831014053 60 0 1.0 8.0 0.00 0.00 0.00 87 1012.6
20260831013552 60 0 1.0 8.0 0.00 0.00 0.00 87 1012.6
20260831013107 60 0 3.0 8.0 0.00 0.00 0.00 87 1012.6
20260831012555 60 321 0.0 8.0 0.00 0.00 0.00 87 1012.7
20260831012052 61 297 2.0 9.0 0.00 0.00 0.00 86 1012.7
20260831011603 61 226 1.0 9.0 0.00 0.00 0.00 86 1012.7
20260831011052 61 329 1.0 7.0 0.00 0.00 0.00 86 1012.7
20260831010552 61 274 1.0 7.0 0.00 0.00 0.00 86 1012.7
20260831010119 61 309 1.0 9.0 0.00 0.00 0.00 85 1012.8
20260831005553 61 0 2.0 9.0 0.00 0.00 0.00 85 1012.8
20260831005056 61 202 1.0 9.0 0.00 0.00 0.00 85 1012.9
20260831004617 61 271 2.0 9.0 0.00 0.00 0.00 85 1012.9
20260831004052 62 0 1.0 7.0 0.00 0.00 0.00 84 1012.9
20260831003556 62 297 1.0 9.0 0.00 0.00 0.00 84 1012.9
20260831003114 62 239 3.0 9.0 0.00 0.00 0.00 83 1012.9
20260831002552 63 280 2.0 7.0 0.00 0.00 0.00 83 1012.8
20260831002054 63 222 2.0 7.0 0.00 0.00 0.00 83 1012.9
20260831001604 63 257 2.0 11.0 0.00 0.00 0.00 84 1013.0
20260831001052 62 207 2.0 11.0 0.00 0.00 0.00 84 1013.0
20260831000555 62 209 2.0 10.0 0.00 0.00 0.00 83 1013.0
20260831000111 62 262 2.0 10.0 0.00 0.00 0.00 84 1013.0
20260830235552 62 235 2.0 10.0 0.00 0.00 0.00 84 1013.0
20260830235055 62 274 3.0 11.0 0.00 0.00 0.00 83 1013.0
20260830234626 62 225 3.0 11.0 0.00 0.00 0.00 83 1013.0
20260830234051 63 225 3.0 12.0 0.00 0.00 0.00 82 1013.1
20260830233554 63 252 3.0 15.0 0.00 0.00 0.00 82 1013.1
20260830233106 63 207 3.0 15.0 0.00 0.00 0.00 83 1013.1
20260830232552 63 281 4.0 15.0 0.00 0.00 0.00 82 1013.1
20260830232052 63 243 2.0 11.0 0.00 0.00 0.00 82 1013.1
20260830231610 63 267 4.0 12.0 0.00 0.00 0.00 82 1013.2
20260830231051 63 250 3.0 12.0 0.00 0.00 0.00 82 1013.1
20260830230555 64 248 3.0 13.0 0.00 0.00 0.00 81 1013.2
20260830230100 64 244 3.0 13.0 0.00 0.00 0.00 81 1013.1
20260830225555 64 302 2.0 9.0 0.00 0.00 0.00 80 1013.2
20260830225052 64 271 3.0 10.0 0.00 0.00 0.00 80 1013.2
20260830224604 64 211 3.0 10.0 0.00 0.00 0.00 80 1013.2
20260830224052 65 198 3.0 10.0 0.00 0.00 0.00 79 1013.3
20260830223619 64 279 2.0 12.0 0.00 0.00 0.00 81 1013.2
20260830223106 64 276 2.0 12.0 0.00 0.00 0.00 80 1013.3
20260830222552 65 223 3.0 14.0 0.00 0.00 0.00 79 1013.3
20260830222052 64 247 3.0 14.0 0.00 0.00 0.00 80 1013.4
20260830221604 65 266 2.0 12.0 0.00 0.00 0.00 80 1013.6
20260830221052 64 225 3.0 12.0 0.00 0.00 0.00 81 1013.7
20260830220552 64 260 4.0 12.0 0.00 0.00 0.00 80 1013.8
20260830215553 64 244 4.0 13.0 0.00 0.00 0.00 79 1013.9
20260830215055 64 298 2.0 13.0 0.00 0.00 0.00 79 1014.0
20260830214607 64 296 2.0 13.0 0.00 0.00 0.00 80 1014.0
20260830214052 64 240 2.0 12.0 0.00 0.00 0.00 80 1014.1
20260830213552 64 209 4.0 12.0 0.00 0.00 0.00 79 1014.2
20260830213115 65 269 3.0 11.0 0.00 0.00 0.00 80 1014.2
20260830212552 64 259 3.0 11.0 0.00 0.00 0.00 80 1014.3
20260830212056 65 311 4.0 11.0 0.00 0.00 0.00 79 1014.3
20260830211608 65 269 3.0 9.0 0.00 0.00 0.00 79 1014.3
20260830211053 65 189 3.0 9.0 0.00 0.00 0.00 79 1014.3
20260830210553 65 250 2.0 9.0 0.00 0.00 0.00 79 1014.3
20260830210108 65 277 2.0 9.0 0.00 0.00 0.00 79 1014.4
20260830205556 65 200 3.0 10.0 0.00 0.00 0.00 79 1014.4
20260830205053 64 277 2.0 10.0 0.00 0.00 0.00 80 1014.5
20260830204602 64 202 3.0 9.0 0.00 0.00 0.00 80 1014.6
20260830204055 64 232 2.0 10.0 0.00 0.00 0.00 79 1014.6
20260830203552 64 244 2.0 10.0 0.00 0.00 0.00 80 1014.5
20260830203101 64 316 3.0 10.0 0.00 0.00 0.00 80 1014.6
20260830202554 64 225 3.0 10.0 0.00 0.00 0.00 79 1014.6
20260830202052 65 287 3.0 10.0 0.00 0.00 0.00 79 1014.6
20260830201606 65 0 2.0 10.0 0.00 0.00 0.00 79 1014.6
20260830201051 65 269 2.0 10.0 0.00 0.00 0.00 78 1014.7
20260830200554 65 294 3.0 10.0 0.00 0.00 0.00 78 1014.8
20260830200111 65 265 2.0 9.0 0.00 0.00 0.00 77 1014.8
20260830195552 65 265 1.0 9.0 0.00 0.00 0.00 78 1014.9
20260830195056 65 202 2.0 9.0 0.00 0.00 0.00 78 1015.0
20260830194604 65 290 2.0 9.0 0.00 0.00 0.00 78 1015.0
20260830194054 64 241 2.0 11.0 0.00 0.00 0.00 79 1015.0
20260830193554 64 213 4.0 11.0 0.00 0.00 0.00 78 1015.0
20260830193107 64 178 3.0 11.0 0.00 0.00 0.00 79 1015.0
20260830192554 63 207 3.0 12.0 0.00 0.00 0.00 81 1015.0
20260830192054 63 276 3.0 12.0 0.00 0.00 0.00 80 1015.0
20260830191603 63 255 4.0 12.0 0.00 0.00 0.00 79 1015.0
20260830191054 63 238 2.0 9.0 0.00 0.00 0.00 81 1015.0
20260830190552 63 245 3.0 9.0 0.00 0.00 0.00 81 1015.2
20260830185555 63 130 4.0 10.0 0.00 0.00 0.00 81 1015.3
20260830185054 63 205 2.0 9.0 0.00 0.00 0.00 82 1015.3
20260830184606 62 222 2.0 10.0 0.00 0.00 0.00 83 1015.3
20260830184051 62 227 4.0 10.0 0.00 0.00 0.00 82 1015.3
20260830183554 62 238 3.0 9.0 0.00 0.00 0.00 83 1015.2
20260830183105 62 289 3.0 9.0 0.00 0.00 0.00 83 1015.2
20260830182555 62 0 2.0 8.0 0.00 0.00 0.00 83 1015.2
20260830182055 61 248 3.0 10.0 0.00 0.00 0.00 84 1015.3
20260830181605 61 360 4.0 10.0 0.00 0.00 0.00 84 1015.2
20260830181053 61 213 3.0 10.0 0.00 0.00 0.00 84 1015.1
20260830180556 61 193 4.0 10.0 0.00 0.00 0.00 85 1015.2
20260830180108 61 235 3.0 8.0 0.00 0.00 0.00 85 1015.2
20260830175552 60 360 3.0 8.0 0.00 0.00 0.00 85 1015.2
20260830175052 60 248 3.0 8.0 0.00 0.00 0.00 86 1015.3
20260830174617 60 226 4.0 8.0 0.00 0.00 0.00 86 1015.4
20260830174055 60 242 3.0 8.0 0.00 0.00 0.00 85 1015.4
20260830173552 60 227 3.0 9.0 0.00 0.00 0.00 86 1015.5
20260830173104 60 224 2.0 9.0 0.00 0.00 0.00 86 1015.4
20260830172552 59 202 4.0 12.0 0.00 0.00 0.00 87 1015.4
20260830172053 59 236 2.0 12.0 0.00 0.00 0.00 87 1015.4
20260830171603 59 232 6.0 11.0 0.00 0.00 0.00 87 1015.4
20260830171055 59 360 2.0 10.0 0.00 0.00 0.00 87 1015.3
20260830170553 59 360 3.0 12.0 0.00 0.00 0.00 87 1015.3
20260830170110 59 192 5.0 12.0 0.00 0.00 0.00 87 1015.3
20260830165554 59 360 6.0 12.0 0.00 0.00 0.00 87 1015.3
20260830165055 59 166 5.0 12.0 0.00 0.00 0.00 87 1015.2
20260830164605 59 152 4.0 12.0 0.00 0.00 0.00 87 1015.2
20260830164052 59 167 3.0 11.0 0.00 0.00 0.00 87 1015.2
20260830163555 59 159 3.0 10.0 0.00 0.00 0.00 88 1015.2
20260830163104 59 360 5.0 11.0 0.00 0.00 0.00 87 1015.2
20260830162552 59 140 3.0 11.0 0.00 0.00 0.00 88 1015.2
20260830162054 59 169 3.0 11.0 0.00 0.00 0.00 88 1015.1
20260830161621 58 125 6.0 11.0 0.00 0.00 0.00 88 1015.1
20260830161052 58 246 3.0 9.0 0.00 0.00 0.00 88 1015.0
20260830160551 58 228 5.0 12.0 0.00 0.00 0.00 88 1015.0
20260830160104 58 155 4.0 12.0 0.00 0.00 0.00 88 1015.0
20260830155552 58 360 4.0 11.0 0.00 0.00 0.00 88 1015.0
20260830155052 58 188 3.0 8.0 0.00 0.00 0.00 89 1015.0
20260830154604 58 191 3.0 8.0 0.00 0.00 0.00 89 1015.1
20260830154055 58 185 4.0 10.0 0.00 0.00 0.00 89 1015.0
20260830153551 58 360 5.0 10.0 0.00 0.00 0.00 89 1015.0
20260830153108 58 223 3.0 10.0 0.00 0.00 0.00 89 1015.0
20260830152555 58 161 5.0 11.0 0.00 0.00 0.00 89 1015.1
20260830152052 58 360 3.0 12.0 0.00 0.00 0.00 89 1015.0
20260830151606 58 185 4.0 12.0 0.00 0.00 0.00 89 1014.9
20260830151055 58 219 3.0 10.0 0.00 0.00 0.00 89 1014.9
20260830150552 58 151 5.0 12.0 0.00 0.00 0.00 89 1014.9
20260830150119 58 233 5.0 12.0 0.00 0.00 0.00 89 1014.9
20260830145552 58 234 5.0 10.0 0.00 0.00 0.00 89 1014.9
20260830145052 58 144 5.0 11.0 0.00 0.00 0.00 89 1014.7
20260830144606 58 166 4.0 11.0 0.00 0.00 0.00 90 1014.7
20260830144052 57 185 5.0 11.0 0.00 0.00 0.00 90 1014.7
20260830143552 57 178 3.0 10.0 0.00 0.00 0.00 90 1014.7
20260830143102 57 206 3.0 11.0 0.00 0.00 0.00 90 1014.6
20260830142555 57 205 3.0 11.0 0.00 0.00 0.00 90 1014.6
20260830142053 57 360 3.0 10.0 0.00 0.00 0.00 90 1014.5
20260830141602 57 190 5.0 10.0 0.00 0.00 0.00 90 1014.4
20260830141051 57 178 2.0 10.0 0.00 0.00 0.00 90 1014.5
20260830140555 57 360 4.0 11.0 0.00 0.00 0.00 90 1014.4
20260830135552 57 198 5.0 11.0 0.00 0.00 0.00 90 1014.4
20260830135055 57 204 4.0 11.0 0.00 0.00 0.00 90 1014.3
20260830134607 57 168 4.0 11.0 0.00 0.00 0.00 90 1014.3
20260830134052 57 158 3.0 11.0 0.00 0.00 0.00 90 1014.2
20260830133555 57 143 5.0 11.0 0.00 0.00 0.00 90 1014.1
20260830133103 57 190 3.0 11.0 0.00 0.00 0.00 90 1014.1
20260830132551 57 360 4.0 10.0 0.00 0.00 0.00 90 1014.1
20260830132051 57 187 4.0 9.0 0.00 0.00 0.00 90 1014.1
20260830131603 57 174 3.0 8.0 0.00 0.00 0.00 90 1014.0
20260830131055 57 183 3.0 9.0 0.00 0.00 0.00 90 1014.0
20260830130552 57 170 3.0 11.0 0.00 0.00 0.00 90 1014.0
20260830130109 57 157 5.0 11.0 0.00 0.00 0.00 90 1014.0
20260830125551 57 194 3.0 11.0 0.00 0.00 0.00 90 1013.9
20260830125051 57 188 2.0 12.0 0.00 0.00 0.00 90 1013.9
20260830124610 57 360 6.0 12.0 0.00 0.00 0.00 90 1013.9
20260830124052 57 360 5.0 11.0 0.00 0.00 0.00 90 1013.8
20260830123556 57 170 5.0 11.0 0.00 0.00 0.00 90 1013.8
20260830123103 57 157 5.0 12.0 0.00 0.00 0.00 90 1013.7
20260830122553 57 146 5.0 13.0 0.00 0.00 0.00 90 1013.7
20260830122053 57 173 6.0 13.0 0.00 0.00 0.00 90 1013.6
20260830121605 57 155 6.0 13.0 0.00 0.00 0.00 90 1013.6
20260830121055 57 185 6.0 14.0 0.00 0.00 0.00 90 1013.6
20260830120555 57 190 7.0 14.0 0.00 0.00 0.00 90 1013.6
20260830115552 57 184 4.0 11.0 0.00 0.00 0.00 90 1013.6
20260830115053 57 179 4.0 11.0 0.00 0.00 0.00 90 1013.6
20260830114615 57 190 3.0 12.0 0.00 0.00 0.00 90 1013.6
20260830114051 57 171 4.0 12.0 0.00 0.00 0.00 90 1013.7
20260830113551 57 167 4.0 11.0 0.00 0.00 0.00 90 1013.7
20260830113101 57 178 3.0 11.0 0.00 0.00 0.00 91 1013.6
20260830112556 57 165 4.0 11.0 0.00 0.00 0.00 91 1013.5
20260830112053 57 165 4.0 11.0 0.00 0.00 0.00 91 1013.6
20260830111604 57 360 4.0 11.0 0.00 0.00 0.00 91 1013.6
20260830111055 57 145 5.0 11.0 0.00 0.00 0.00 91 1013.5
20260830110551 57 159 4.0 12.0 0.00 0.00 0.00 91 1013.6
20260830105555 57 360 4.0 9.0 0.00 0.00 0.00 91 1013.5
20260830105053 57 184 4.0 9.0 0.00 0.00 0.00 91 1013.5
20260830104611 57 360 4.0 9.0 0.00 0.00 0.00 91 1013.6
20260830104055 57 163 3.0 9.0 0.00 0.00 0.00 91 1013.6
20260830103555 57 164 4.0 9.0 0.00 0.00 0.00 91 1013.5
20260830103105 57 360 4.0 10.0 0.00 0.00 0.00 91 1013.6
20260830102555 57 170 5.0 10.0 0.00 0.00 0.00 91 1013.7
20260830102052 57 163 5.0 11.0 0.00 0.00 0.00 91 1013.7
20260830101603 57 163 5.0 11.0 0.00 0.00 0.00 91 1013.6
20260830101052 57 188 4.0 11.0 0.00 0.00 0.00 90 1013.7
20260830100555 57 142 4.0 11.0 0.00 0.00 0.00 90 1013.6
20260830100101 57 169 3.0 7.0 0.00 0.00 0.00 90 1013.7
20260830095552 57 148 3.0 7.0 0.00 0.00 0.00 90 1013.8
20260830095052 57 172 3.0 9.0 0.00 0.00 0.00 90 1013.7
20260830094604 57 167 5.0 10.0 0.00 0.00 0.00 90 1013.7
20260830094056 57 130 4.0 10.0 0.00 0.00 0.00 89 1013.7
20260830093552 57 163 4.0 9.0 0.00 0.00 0.00 89 1013.6
20260830093105 57 147 4.0 9.0 0.00 0.00 0.00 89 1013.7
20260830092552 57 167 3.0 7.0 0.00 0.00 0.00 89 1013.8
20260830092058 57 159 3.0 8.0 0.00 0.00 0.00 88 1013.7
20260830091606 57 157 3.0 8.0 0.00 0.00 0.00 88 1013.8
20260830091052 57 158 3.0 9.0 0.00 0.00 0.00 88 1013.7
20260830090555 57 138 3.0 9.0 0.00 0.00 0.00 88 1013.8
20260830090128 57 141 4.0 9.0 0.00 0.00 0.00 88 1013.9
20260830085551 57 151 3.0 10.0 0.00 0.00 0.00 88 1013.9
20260830085052 57 145 5.0 10.0 0.00 0.00 0.00 88 1013.9
20260830084605 57 159 3.0 9.0 0.00 0.00 0.00 88 1013.8
20260830084055 57 155 3.0 8.0 0.00 0.00 0.00 87 1013.8
20260830083555 57 162 4.0 8.0 0.00 0.00 0.00 88 1013.8
20260830083103 58 150 4.0 8.0 0.00 0.00 0.00 88 1013.9
20260830082555 58 153 4.0 9.0 0.00 0.00 0.00 88 1013.8
20260830082051 58 132 4.0 9.0 0.00 0.00 0.00 88 1013.8
20260830081609 58 142 4.0 9.0 0.00 0.00 0.00 88 1013.9
20260830081051 58 148 3.0 9.0 0.00 0.00 0.00 88 1013.9
20260830080555 58 142 4.0 8.0 0.00 0.00 0.00 88 1013.8
20260830080104 58 135 4.0 8.0 0.00 0.00 0.00 88 1013.9
20260830075555 58 136 3.0 8.0 0.00 0.00 0.00 87 1013.9
20260830075056 58 138 3.0 7.0 0.00 0.00 0.00 88 1013.9
20260830074633 58 129 3.0 7.0 0.00 0.00 0.00 87 1013.9
20260830074055 58 155 3.0 6.0 0.00 0.00 0.00 87 1013.9
20260830073555 58 166 3.0 7.0 0.00 0.00 0.00 87 1013.9
20260830073103 58 178 3.0 7.0 0.00 0.00 0.00 88 1014.0
20260830072555 58 141 2.0 8.0 0.00 0.00 0.00 88 1014.0
20260830072053 58 121 4.0 8.0 0.00 0.00 0.00 88 1013.9
20260830071606 58 148 4.0 8.0 0.00 0.00 0.00 88 1013.9
20260830071051 58 157 4.0 8.0 0.00 0.00 0.00 88 1013.9
20260830070552 59 168 4.0 8.0 0.00 0.00 0.00 88 1013.9
20260830070104 59 140 2.0 7.0 0.00 0.00 0.00 88 1014.0
20260830065555 59 148 4.0 10.0 0.00 0.00 0.00 88 1013.9
20260830065055 59 148 4.0 10.0 0.00 0.00 0.00 88 1013.9
20260830064612 59 140 4.0 10.0 0.00 0.00 0.00 88 1013.9
20260830064056 59 150 3.0 10.0 0.00 0.00 0.00 88 1013.9
20260830063556 59 148 4.0 9.0 0.00 0.00 0.00 88 1013.9
20260830063103 59 165 3.0 10.0 0.00 0.00 0.00 88 1014.0
20260830062555 59 175 5.0 13.0 0.00 0.00 0.00 88 1013.9
20260830062055 59 118 3.0 13.0 0.00 0.00 0.00 88 1014.0
20260830061614 59 139 7.0 13.0 0.00 0.00 0.00 88 1013.9
20260830061055 59 115 5.0 13.0 0.00 0.00 0.00 88 1014.0
20260830060555 59 139 5.0 13.0 0.00 0.00 0.00 88 1014.0
20260830060107 59 157 7.0 14.0 0.00 0.00 0.00 88 1014.0
20260830055555 59 159 7.0 14.0 0.00 0.00 0.00 88 1013.9
20260830055055 60 164 6.0 14.0 0.00 0.00 0.00 88 1013.9
20260830054625 60 150 7.0 14.0 0.00 0.00 0.00 88 1014.0
20260830054055 60 148 7.0 14.0 0.00 0.00 0.00 88 1014.1
20260830053557 60 158 5.0 16.0 0.00 0.00 0.00 87 1014.2
20260830053105 60 148 7.0 16.0 0.00 0.00 0.00 87 1014.2
20260830052555 60 140 4.0 12.0 0.00 0.00 0.00 87 1014.1
20260830052056 60 123 3.0 12.0 0.00 0.00 0.00 86 1014.1
20260830051608 60 138 6.0 12.0 0.00 0.00 0.00 86 1014.0
20260830051055 60 131 5.0 9.0 0.00 0.00 0.00 85 1014.1
20260830050552 60 123 6.0 13.0 0.00 0.00 0.00 85 1014.1
20260830050113 61 147 7.0 13.0 0.00 0.00 0.00 85 1014.2
20260830045552 61 136 6.0 12.0 0.00 0.00 0.00 85 1014.3
20260830045052 61 142 7.0 15.0 0.00 0.00 0.00 85 1014.2
20260830044617 61 144 6.0 15.0 0.00 0.00 0.00 84 1014.2
20260830044055 61 141 6.0 14.0 0.00 0.00 0.00 84 1014.1
20260830043556 61 152 7.0 14.0 0.00 0.00 0.00 83 1014.0
20260830043108 61 146 6.0 14.0 0.00 0.00 0.00 83 1014.0
20260830042557 61 128 7.0 14.0 0.00 0.00 0.00 83 1013.9
20260830042056 61 154 6.0 14.0 0.00 0.00 0.00 82 1014.0
20260830041702 61 133 5.0 12.0 0.00 0.00 0.00 82 1014.0
20260830041055 61 202 5.0 12.0 0.00 0.00 0.00 81 1013.9
20260830040555 61 140 3.0 14.0 0.00 0.00 0.00 81 1013.8
20260830040104 61 141 6.0 14.0 0.00 0.00 0.00 80 1013.9
20260830035556 62 132 7.0 12.0 0.00 0.00 0.00 80 1013.7
20260830035053 62 143 5.0 11.0 0.00 0.00 0.00 80 1013.7
20260830034607 62 144 6.0 12.0 0.00 0.00 0.00 80 1013.8
20260830034051 62 146 5.0 12.0 0.00 0.00 0.00 80 1013.7
20260830033552 62 156 6.0 12.0 0.00 0.00 0.00 79 1013.7
20260830033103 62 134 4.0 9.0 0.00 0.00 0.00 79 1013.6
20260830032552 62 148 4.0 11.0 0.00 0.00 0.00 79 1013.7
20260830032057 62 164 5.0 11.0 0.00 0.00 0.00 79 1013.5
20260830031602 62 142 6.0 11.0 0.00 0.00 0.00 79 1013.5
20260830031052 62 139 6.0 10.0 0.00 0.00 0.00 79 1013.5